,,PA_Meas_PMT16A,,PR_Meas_QMR101_102,,RH_Meas_QMH101,,SR_Meas_QMS101,,TA_Meas_QMH101,,GenWind,,GenWind,
time,status,PA,status,PR,status,RH,status,SR,status,TA,status,DirAvg,status,SpdAvg,
2011-01-22, 00:00:04,VALID,916.879,VALID,0,VALID,96.7411,VALID,0,VALID,18.9229,VALID,182,VALID,0.501562,
2011-01-22, 00:01:04,VALID,916.894,VALID,0,VALID,96.7335,VALID,0,VALID,18.9229,VALID,182,VALID,0.440625,
2011-01-22, 00:02:04,VALID,916.894,VALID,0,VALID,96.7335,VALID,0,VALID,18.9229,VALID,182,VALID,0.324219,
2011-01-22, 00:03:04,VALID,916.894,VALID,0,VALID,96.7411,VALID,0,VALID,18.9034,VALID,182,VALID,0.669922,
2011-01-22, 00:04:04,VALID,916.891,VALID,0,VALID,96.7564,VALID,0,VALID,18.9034,VALID,182,VALID,0.789453,
2011-01-22, 00:05:04,VALID,916.903,VALID,0,VALID,96.7945,VALID,0,VALID,18.9034,VALID,182,VALID,0.727344,
2011-01-22, 00:06:04,VALID,916.905,VALID,0,VALID,96.7945,VALID,0,VALID,18.9438,VALID,182,VALID,0.499609,
2011-01-22, 00:07:04,VALID,916.912,VALID,0,VALID,96.8021,VALID,0,VALID,18.9438,VALID,182,VALID,0.507031,
2011-01-22, 00:08:04,VALID,916.926,VALID,0,VALID,96.8326,VALID,0,VALID,18.9424,VALID,182,VALID,0.688672,
2011-01-22, 00:09:04,VALID,916.913,VALID,0,VALID,96.8403,VALID,0,VALID,18.9229,VALID,182,VALID,0.503906,
2011-01-22, 00:10:04,VALID,916.876,VALID,0,VALID,96.8098,VALID,0,VALID,18.9424,VALID,182,VALID,0.457422,
2011-01-22, 00:11:04,VALID,916.888,VALID,0,VALID,96.8479,VALID,0,VALID,18.9229,VALID,182,VALID,0.439063,
2011-01-22, 00:12:04,VALID,916.886,VALID,0,VALID,96.8403,VALID,0,VALID,18.9438,VALID,182,VALID,0.502344,
2011-01-22, 00:13:04,VALID,916.879,VALID,0,VALID,96.8555,VALID,0,VALID,18.9424,VALID,182,VALID,0.446094,
2011-01-22, 00:14:04,VALID,916.894,VALID,0,VALID,96.8403,VALID,0,VALID,18.9424,VALID,182,VALID,0.614062,
2011-01-22, 00:15:04,VALID,916.865,VALID,0,VALID,96.8403,VALID,0,VALID,18.9409,VALID,182,VALID,0.586328,
2011-01-22, 00:16:04,VALID,916.868,VALID,0,VALID,96.8631,VALID,0,VALID,18.9619,VALID,182,VALID,0.572266,
2011-01-22, 00:17:04,VALID,916.842,VALID,0,VALID,96.8631,VALID,0,VALID,18.9814,VALID,182,VALID,0.665234,
2011-01-22, 00:18:04,VALID,916.846,VALID,0,VALID,96.8555,VALID,0,VALID,19.0023,VALID,182,VALID,0.376953,
2011-01-22, 00:19:04,VALID,916.835,VALID,0,VALID,96.8631,VALID,0,VALID,18.9814,VALID,182,VALID,0.597266,
2011-01-22, 00:20:04,VALID,916.825,VALID,0,VALID,96.8479,VALID,0,VALID,19.0008,VALID,182,VALID,0.338672,
2011-01-22, 00:21:04,VALID,916.838,VALID,0,VALID,96.8326,VALID,0,VALID,19.0203,VALID,182,VALID,0.622266,
2011-01-22, 00:22:04,VALID,916.822,VALID,0,VALID,96.8631,VALID,0,VALID,19.0203,VALID,182,VALID,0.673047,
2011-01-22, 00:23:04,VALID,916.798,VALID,0,VALID,96.8707,VALID,0,VALID,19.0593,VALID,182,VALID,0.851563,
2011-01-22, 00:24:04,VALID,916.804,VALID,0,VALID,96.8479,VALID,0,VALID,19.0788,VALID,182,VALID,0.741406,
2011-01-22, 00:25:04,VALID,916.77,VALID,0,VALID,96.8555,VALID,0,VALID,19.0983,VALID,182,VALID,0.7625,
2011-01-22, 00:26:04,VALID,916.773,VALID,0,VALID,96.8174,VALID,0,VALID,19.1178,VALID,182,VALID,0.606641,
2011-01-22, 00:27:04,VALID,916.765,VALID,0,VALID,96.8098,VALID,0.107441,VALID,19.1178,VALID,182,VALID,0.345313,
2011-01-22, 00:28:04,VALID,916.76,VALID,0,VALID,96.7869,VALID,0,VALID,19.1373,VALID,182,VALID,0.566406,
2011-01-22, 00:29:04,VALID,916.74,VALID,0,VALID,96.7869,VALID,0,VALID,19.1373,VALID,182,VALID,0.864062,
2011-01-22, 00:30:04,VALID,916.718,VALID,0,VALID,96.7716,VALID,0,VALID,19.0774,VALID,182,VALID,0.860156,
2011-01-22, 00:31:04,VALID,916.714,VALID,0,VALID,96.764,VALID,0,VALID,19.0983,VALID,182,VALID,0.84375,
2011-01-22, 00:32:04,VALID,916.718,VALID,0,VALID,96.7716,VALID,0,VALID,19.0788,VALID,182,VALID,1.12305,
2011-01-22, 00:33:04,VALID,916.699,VALID,0,VALID,96.7488,VALID,0,VALID,19.0593,VALID,182,VALID,1.33164,
2011-01-22, 00:34:04,VALID,916.657,VALID,0,VALID,96.7411,VALID,0,VALID,19.0593,VALID,182,VALID,1.05547,
2011-01-22, 00:35:04,VALID,916.664,VALID,0,VALID,96.7335,VALID,0,VALID,19.0398,VALID,182,VALID,1.23984,
2011-01-22, 00:36:04,VALID,916.696,VALID,0,VALID,96.7564,VALID,0,VALID,19.0398,VALID,182,VALID,1.29609,
2011-01-22, 00:37:04,VALID,916.65,VALID,0,VALID,96.7793,VALID,0,VALID,19.0203,VALID,182,VALID,0.928516,
2011-01-22, 00:38:04,VALID,916.624,VALID,0,VALID,96.8021,VALID,0,VALID,19.0398,VALID,182,VALID,0.778906,
2011-01-22, 00:39:04,VALID,916.647,VALID,0,VALID,96.8021,VALID,0.107441,VALID,19.0398,VALID,182,VALID,1.09219,
2011-01-22, 00:40:04,VALID,916.611,VALID,0,VALID,96.8098,VALID,0,VALID,19.0203,VALID,182,VALID,0.518359,
2011-01-22, 00:41:04,VALID,916.599,VALID,0,VALID,96.8326,VALID,0,VALID,19.0203,VALID,182,VALID,0.498828,
2011-01-22, 00:42:04,VALID,916.616,VALID,0,VALID,96.8326,VALID,0,VALID,19.0608,VALID,182,VALID,0.608594,
2011-01-22, 00:43:04,VALID,916.599,VALID,0,VALID,96.8403,VALID,0,VALID,19.0398,VALID,182,VALID,0.510547,
2011-01-22, 00:44:04,VALID,916.587,VALID,0,VALID,96.8403,VALID,0,VALID,19.0608,VALID,182,VALID,0.468359,
2011-01-22, 00:45:04,VALID,916.578,VALID,0,VALID,96.8403,VALID,0,VALID,19.0608,VALID,207,VALID,0.485156,
2011-01-22, 00:46:04,VALID,916.537,VALID,0,VALID,96.8631,VALID,0,VALID,19.0593,VALID,207,VALID,0.274219,
2011-01-22, 00:47:04,VALID,916.521,VALID,0,VALID,96.8479,VALID,0,VALID,19.0593,VALID,207,VALID,0.666797,
2011-01-22, 00:48:04,VALID,916.487,VALID,0,VALID,96.8479,VALID,0,VALID,19.0593,VALID,207,VALID,0.564453,
2011-01-22, 00:49:04,VALID,916.492,VALID,0,VALID,96.8098,VALID,0,VALID,19.0788,VALID,207,VALID,1.04414,
2011-01-22, 00:50:04,VALID,916.47,VALID,0,VALID,96.7945,VALID,0,VALID,19.0593,VALID,206,VALID,1.2,
2011-01-22, 00:51:04,VALID,916.47,VALID,0,VALID,96.8098,VALID,0,VALID,19.0788,VALID,206,VALID,0.693359,
2011-01-22, 00:52:04,VALID,916.469,VALID,0,VALID,96.7869,VALID,0,VALID,19.0593,VALID,206,VALID,1.05234,
2011-01-22, 00:53:04,VALID,916.44,VALID,0,VALID,96.7869,VALID,0,VALID,19.0998,VALID,205,VALID,0.71875,
2011-01-22, 00:54:04,VALID,916.443,VALID,0,VALID,96.7564,VALID,0,VALID,19.0983,VALID,205,VALID,0.818359,
2011-01-22, 00:55:04,VALID,916.44,VALID,0,VALID,96.7564,VALID,0,VALID,19.0579,VALID,205,VALID,0.621875,
2011-01-22, 00:56:04,VALID,916.433,VALID,0,VALID,96.7183,VALID,0,VALID,19.0788,VALID,120,VALID,1.30625,
2011-01-22, 00:57:04,VALID,916.419,VALID,0,VALID,96.7107,VALID,0,VALID,19.0983,VALID,123,VALID,1.41719,
2011-01-22, 00:58:04,VALID,916.425,VALID,0,VALID,96.6878,VALID,0,VALID,19.0983,VALID,123,VALID,0.955469,
2011-01-22, 00:59:04,VALID,916.41,VALID,0,VALID,96.6649,VALID,0,VALID,19.1193,VALID,123,VALID,0.866406,
2011-01-22, 01:00:04,VALID,916.387,VALID,0,VALID,96.6497,VALID,0,VALID,19.0983,VALID,151,VALID,0.973828,
2011-01-22, 01:01:04,VALID,916.346,VALID,0,VALID,96.6268,VALID,0,VALID,19.0983,VALID,151,VALID,0.428125,
2011-01-22, 01:02:04,VALID,916.324,VALID,0,VALID,96.6192,VALID,0,VALID,19.0983,VALID,151,VALID,0.919922,
2011-01-22, 01:03:04,VALID,916.334,VALID,0,VALID,96.6115,VALID,0,VALID,19.0983,VALID,151,VALID,1.13203,
2011-01-22, 01:04:04,VALID,916.307,VALID,0,VALID,96.5887,VALID,0,VALID,19.0983,VALID,125,VALID,1.20977,
2011-01-22, 01:05:04,VALID,916.316,VALID,0,VALID,96.5506,VALID,0,VALID,19.0788,VALID,125,VALID,1.23789,
2011-01-22, 01:06:04,VALID,916.288,VALID,0,VALID,96.5582,VALID,0,VALID,19.0983,VALID,112,VALID,1.03711,
2011-01-22, 01:07:04,VALID,916.277,VALID,0,VALID,96.5658,VALID,0,VALID,19.0579,VALID,126,VALID,1.42539,
2011-01-22, 01:08:04,VALID,916.277,VALID,0,VALID,96.5658,VALID,0,VALID,19.0788,VALID,126,VALID,1.0707,
2011-01-22, 01:09:04,VALID,916.268,VALID,0,VALID,96.5582,VALID,0,VALID,19.0788,VALID,126,VALID,0.697656,
2011-01-22, 01:10:04,VALID,916.226,VALID,0,VALID,96.5734,VALID,0,VALID,19.0803,VALID,126,VALID,1.18516,
2011-01-22, 01:11:04,VALID,916.232,VALID,0,VALID,96.5811,VALID,0,VALID,19.0593,VALID,127,VALID,1.18242,
2011-01-22, 01:12:04,VALID,916.216,VALID,0,VALID,96.5887,VALID,0,VALID,19.0593,VALID,137,VALID,0.886719,
2011-01-22, 01:13:04,VALID,916.201,VALID,0,VALID,96.6344,VALID,0,VALID,19.0788,VALID,137,VALID,0.853125,
2011-01-22, 01:14:04,VALID,916.203,VALID,0,VALID,96.6268,VALID,0,VALID,19.0593,VALID,124,VALID,0.840234,
2011-01-22, 01:15:04,VALID,916.2,VALID,0,VALID,96.6573,VALID,0,VALID,19.0398,VALID,123,VALID,0.870313,
2011-01-22, 01:16:04,VALID,916.193,VALID,0,VALID,96.6725,VALID,0,VALID,19.0398,VALID,123,VALID,1.30391,
2011-01-22, 01:17:04,VALID,916.21,VALID,0,VALID,96.6878,VALID,0,VALID,19.0593,VALID,147,VALID,1.375,
2011-01-22, 01:18:04,VALID,916.194,VALID,0,VALID,96.6878,VALID,0,VALID,19.0593,VALID,120,VALID,0.978516,
2011-01-22, 01:19:04,VALID,916.187,VALID,0,VALID,96.7259,VALID,0,VALID,19.0398,VALID,120,VALID,0.805859,
2011-01-22, 01:20:04,VALID,916.193,VALID,0,VALID,96.7107,VALID,0,VALID,19.0398,VALID,125,VALID,1.25586,
2011-01-22, 01:21:04,VALID,916.206,VALID,0,VALID,96.7335,VALID,0,VALID,19.0203,VALID,138,VALID,0.874219,
2011-01-22, 01:22:04,VALID,916.176,VALID,0,VALID,96.7716,VALID,0,VALID,19.0398,VALID,138,VALID,0.629297,
2011-01-22, 01:23:04,VALID,916.167,VALID,0,VALID,96.764,VALID,0,VALID,19.0398,VALID,138,VALID,1.04883,
2011-01-22, 01:24:04,VALID,916.148,VALID,0,VALID,96.7716,VALID,0,VALID,19.0593,VALID,137,VALID,0.984766,
2011-01-22, 01:25:04,VALID,916.127,VALID,0,VALID,96.764,VALID,0,VALID,19.0593,VALID,141,VALID,1.10664,
2011-01-22, 01:26:04,VALID,916.127,VALID,0,VALID,96.7869,VALID,0,VALID,19.0398,VALID,151,VALID,1.27461,
2011-01-22, 01:27:04,VALID,916.086,VALID,0,VALID,96.8021,VALID,0,VALID,19.0593,VALID,138,VALID,0.748828,
2011-01-22, 01:28:04,VALID,916.063,VALID,0,VALID,96.8021,VALID,0,VALID,19.0593,VALID,138,VALID,1.11094,
2011-01-22, 01:29:04,VALID,916.059,VALID,0,VALID,96.7945,VALID,0,VALID,19.0788,VALID,147,VALID,1.13164,
2011-01-22, 01:30:04,VALID,916.018,VALID,0,VALID,96.8098,VALID,0,VALID,19.0593,VALID,151,VALID,1.1543,
2011-01-22, 01:31:04,VALID,916.012,VALID,0,VALID,96.7869,VALID,0,VALID,19.0803,VALID,142,VALID,1.16758,
2011-01-22, 01:32:04,VALID,915.985,VALID,0,VALID,96.8098,VALID,0,VALID,19.0803,VALID,141,VALID,0.544922,
2011-01-22, 01:33:04,VALID,915.98,VALID,0,VALID,96.7945,VALID,0,VALID,19.0803,VALID,140,VALID,0.672656,
2011-01-22, 01:34:04,VALID,915.953,VALID,0,VALID,96.7793,VALID,0,VALID,19.0788,VALID,140,VALID,0.549219,
2011-01-22, 01:35:04,VALID,915.91,VALID,0,VALID,96.7793,VALID,0,VALID,19.0593,VALID,140,VALID,0.470313,
2011-01-22, 01:36:04,VALID,915.923,VALID,0,VALID,96.7869,VALID,0,VALID,19.0788,VALID,120,VALID,0.610937,
2011-01-22, 01:37:04,VALID,915.897,VALID,0,VALID,96.7869,VALID,0,VALID,19.0788,VALID,120,VALID,0.228125,
2011-01-22, 01:38:04,VALID,915.887,VALID,0,VALID,96.7869,VALID,0,VALID,19.0788,VALID,120,VALID,0.611719,
2011-01-22, 01:39:04,VALID,915.893,VALID,0,VALID,96.7716,VALID,0,VALID,19.0593,VALID,120,VALID,0.298828,
2011-01-22, 01:40:04,VALID,915.872,VALID,0,VALID,96.7945,VALID,0,VALID,19.0788,VALID,120,VALID,0.273438,
2011-01-22, 01:41:04,VALID,915.857,VALID,0,VALID,96.8021,VALID,0,VALID,19.0788,VALID,120,VALID,0.363281,
2011-01-22, 01:42:04,VALID,915.857,VALID,0,VALID,96.8098,VALID,0,VALID,19.0788,VALID,120,VALID,0.538281,
2011-01-22, 01:43:04,VALID,915.841,VALID,0,VALID,96.7793,VALID,0,VALID,19.0593,VALID,120,VALID,0.521094,
2011-01-22, 01:44:04,VALID,915.846,VALID,0,VALID,96.7716,VALID,0,VALID,19.0593,VALID,120,VALID,0.595703,
2011-01-22, 01:45:04,VALID,915.838,VALID,0,VALID,96.7564,VALID,0,VALID,19.0593,VALID,120,VALID,0.546094,
2011-01-22, 01:46:04,VALID,915.84,VALID,0,VALID,96.7793,VALID,0,VALID,19.0398,VALID,120,VALID,0.363672,
2011-01-22, 01:47:04,VALID,915.868,VALID,0,VALID,96.7869,VALID,0,VALID,19.0189,VALID,120,VALID,0.433984,
2011-01-22, 01:48:04,VALID,915.836,VALID,0,VALID,96.7945,VALID,0,VALID,19.0189,VALID,120,VALID,0.255469,
2011-01-22, 01:49:04,VALID,915.849,VALID,0,VALID,96.8098,VALID,0,VALID,19.0398,VALID,120,VALID,0.285156,
2011-01-22, 01:50:04,VALID,915.819,VALID,0,VALID,96.8174,VALID,0,VALID,19.0593,VALID,120,VALID,0.372656,
2011-01-22, 01:51:04,VALID,915.786,VALID,0,VALID,96.8021,VALID,0,VALID,19.0593,VALID,120,VALID,0.167187,
2011-01-22, 01:52:04,VALID,915.764,VALID,0,VALID,96.825,VALID,0,VALID,19.0803,VALID,120,VALID,0,
2011-01-22, 01:53:04,VALID,915.748,VALID,0,VALID,96.8403,VALID,0,VALID,19.0593,VALID,120,VALID,0.201953,
2011-01-22, 01:54:04,VALID,915.733,VALID,0,VALID,96.8326,VALID,0,VALID,19.0593,VALID,120,VALID,0.0382813,
2011-01-22, 01:55:04,VALID,915.722,VALID,0,VALID,96.825,VALID,0,VALID,19.0398,VALID,120,VALID,0.149609,
2011-01-22, 01:56:04,VALID,915.692,VALID,0,VALID,96.8479,VALID,0,VALID,19.0593,VALID,120,VALID,0.336719,
2011-01-22, 01:57:04,VALID,915.684,VALID,0,VALID,96.8403,VALID,0,VALID,19.0398,VALID,120,VALID,0.60625,
2011-01-22, 01:58:04,VALID,915.69,VALID,0,VALID,96.8555,VALID,0,VALID,19.0593,VALID,120,VALID,0.392969,
2011-01-22, 01:59:04,VALID,915.701,VALID,0,VALID,96.8707,VALID,0,VALID,19.0593,VALID,120,VALID,0.555859,
2011-01-22, 02:00:04,VALID,915.657,VALID,0,VALID,96.8707,VALID,0,VALID,19.0398,VALID,168,VALID,1.10078,
2011-01-22, 02:01:04,VALID,915.662,VALID,0,VALID,96.8479,VALID,0,VALID,19.0398,VALID,154,VALID,1.2457,
2011-01-22, 02:02:04,VALID,915.662,VALID,0,VALID,96.8555,VALID,0,VALID,19.0398,VALID,172,VALID,0.628125,
2011-01-22, 02:03:04,VALID,915.674,VALID,0,VALID,96.8631,VALID,0,VALID,19.0398,VALID,172,VALID,1.05586,
2011-01-22, 02:04:04,VALID,915.645,VALID,0,VALID,96.8784,VALID,0,VALID,19.0203,VALID,149,VALID,1.15313,
2011-01-22, 02:05:04,VALID,915.617,VALID,0,VALID,96.8555,VALID,0,VALID,19.0398,VALID,140,VALID,0.991797,
2011-01-22, 02:06:04,VALID,915.605,VALID,0,VALID,96.8403,VALID,0,VALID,19.0203,VALID,120,VALID,0.626562,
2011-01-22, 02:07:04,VALID,915.581,VALID,0,VALID,96.8479,VALID,0,VALID,19.0218,VALID,129,VALID,1.05234,
2011-01-22, 02:08:04,VALID,915.545,VALID,0,VALID,96.8555,VALID,0,VALID,19.0203,VALID,138,VALID,0.570313,
2011-01-22, 02:09:04,VALID,915.527,VALID,0,VALID,96.8403,VALID,0,VALID,19.0008,VALID,127,VALID,1.22773,
2011-01-22, 02:10:04,VALID,915.489,VALID,0,VALID,96.8326,VALID,0,VALID,18.9799,VALID,142,VALID,0.569141,
2011-01-22, 02:11:04,VALID,915.471,VALID,0,VALID,96.825,VALID,0,VALID,19.0008,VALID,142,VALID,0.680859,
2011-01-22, 02:12:04,VALID,915.487,VALID,0,VALID,96.8098,VALID,0,VALID,19.0008,VALID,142,VALID,1.16562,
2011-01-22, 02:13:04,VALID,915.489,VALID,0,VALID,96.8098,VALID,0,VALID,19.0008,VALID,141,VALID,0.572656,
2011-01-22, 02:14:04,VALID,915.461,VALID,0,VALID,96.764,VALID,0,VALID,19.0008,VALID,149,VALID,1.3582,
2011-01-22, 02:15:04,VALID,915.477,VALID,0,VALID,96.7564,VALID,0,VALID,19.0008,VALID,171,VALID,0.975391,
2011-01-22, 02:16:04,VALID,915.462,VALID,0,VALID,96.7488,VALID,0,VALID,19.0203,VALID,149,VALID,0.669922,
2011-01-22, 02:17:04,VALID,915.456,VALID,0,VALID,96.6954,VALID,0,VALID,19.0203,VALID,149,VALID,0.529297,
2011-01-22, 02:18:04,VALID,915.472,VALID,0,VALID,96.6725,VALID,0,VALID,19.0203,VALID,149,VALID,0.595703,
2011-01-22, 02:19:04,VALID,915.482,VALID,0,VALID,96.6497,VALID,0,VALID,19.0203,VALID,149,VALID,0.113281,
2011-01-22, 02:20:04,VALID,915.464,VALID,0,VALID,96.6344,VALID,0,VALID,19.0203,VALID,149,VALID,0.0519531,
2011-01-22, 02:21:04,VALID,915.459,VALID,0,VALID,96.5963,VALID,0,VALID,19.0398,VALID,149,VALID,1.01016,
2011-01-22, 02:22:04,VALID,915.465,VALID,0,VALID,96.5734,VALID,0,VALID,19.0008,VALID,149,VALID,0.412891,
2011-01-22, 02:23:04,VALID,915.461,VALID,0,VALID,96.5506,VALID,0,VALID,19.0008,VALID,149,VALID,0.853125,
2011-01-22, 02:24:04,VALID,915.471,VALID,0,VALID,96.5277,VALID,0,VALID,19.0218,VALID,149,VALID,0.967969,
2011-01-22, 02:25:04,VALID,915.494,VALID,0,VALID,96.5124,VALID,0,VALID,18.9994,VALID,149,VALID,0.642969,
2011-01-22, 02:26:04,VALID,915.512,VALID,0,VALID,96.4896,VALID,0,VALID,19.0413,VALID,131,VALID,0.744922,
2011-01-22, 02:27:04,VALID,915.528,VALID,0,VALID,96.4591,VALID,0,VALID,19.0203,VALID,128,VALID,0.784766,
2011-01-22, 02:28:04,VALID,915.515,VALID,0,VALID,96.421,VALID,0,VALID,19.0398,VALID,141,VALID,0.637891,
2011-01-22, 02:29:04,VALID,915.521,VALID,0,VALID,96.36,VALID,0.107441,VALID,19.0593,VALID,142,VALID,0.8625,
2011-01-22, 02:30:04,VALID,915.516,VALID,0,VALID,96.3295,VALID,0,VALID,19.0189,VALID,123,VALID,1.12422,
2011-01-22, 02:31:04,VALID,915.502,VALID,0,VALID,96.3066,VALID,0,VALID,19.0398,VALID,118,VALID,1.46563,
2011-01-22, 02:32:04,VALID,915.498,VALID,0,VALID,96.2685,VALID,0,VALID,19.0203,VALID,146,VALID,0.862891,
2011-01-22, 02:33:04,VALID,915.501,VALID,0,VALID,96.238,VALID,0,VALID,19.0398,VALID,132,VALID,1.43086,
2011-01-22, 02:34:04,VALID,915.505,VALID,0,VALID,96.2533,VALID,0,VALID,19.0593,VALID,133,VALID,1.15,
2011-01-22, 02:35:04,VALID,915.525,VALID,0,VALID,96.2304,VALID,0,VALID,19.0593,VALID,154,VALID,1.17305,
2011-01-22, 02:36:04,VALID,915.514,VALID,0,VALID,96.2304,VALID,0,VALID,19.0803,VALID,145,VALID,1.28242,
2011-01-22, 02:37:04,VALID,915.557,VALID,0,VALID,96.1846,VALID,0,VALID,19.0788,VALID,181,VALID,1.07773,
2011-01-22, 02:38:04,VALID,915.536,VALID,0,VALID,96.1694,VALID,0,VALID,19.0788,VALID,158,VALID,0.994141,
2011-01-22, 02:39:04,VALID,915.515,VALID,0,VALID,96.1236,VALID,0,VALID,19.0788,VALID,125,VALID,1.55234,
2011-01-22, 02:40:04,VALID,915.519,VALID,0,VALID,96.0932,VALID,0,VALID,19.0983,VALID,153,VALID,1.34727,
2011-01-22, 02:41:04,VALID,915.527,VALID,0,VALID,96.0703,VALID,0,VALID,19.1178,VALID,134,VALID,1.15352,
2011-01-22, 02:42:04,VALID,915.539,VALID,0,VALID,96.0398,VALID,0,VALID,19.1178,VALID,117,VALID,1.04297,
2011-01-22, 02:43:04,VALID,915.535,VALID,0,VALID,96.0093,VALID,0,VALID,19.1373,VALID,123,VALID,0.9375,
2011-01-22, 02:44:04,VALID,915.592,VALID,0,VALID,95.9864,VALID,0,VALID,19.1178,VALID,126,VALID,1.27031,
2011-01-22, 02:45:04,VALID,915.597,VALID,0,VALID,95.9483,VALID,0,VALID,19.1373,VALID,136,VALID,1.36367,
2011-01-22, 02:46:04,VALID,915.612,VALID,0,VALID,95.9483,VALID,0,VALID,19.1568,VALID,163,VALID,0.603516,
2011-01-22, 02:47:04,VALID,915.621,VALID,0,VALID,95.9102,VALID,0,VALID,19.1568,VALID,134,VALID,0.855859,
2011-01-22, 02:48:04,VALID,915.642,VALID,0,VALID,95.9331,VALID,0,VALID,19.1373,VALID,134,VALID,0.798828,
2011-01-22, 02:49:04,VALID,915.62,VALID,0,VALID,95.9102,VALID,0,VALID,19.1778,VALID,144,VALID,0.589844,
2011-01-22, 02:50:04,VALID,915.641,VALID,0,VALID,95.9026,VALID,0,VALID,19.1568,VALID,150,VALID,0.978125,
2011-01-22, 02:51:04,VALID,915.651,VALID,0,VALID,95.8873,VALID,0,VALID,19.1778,VALID,138,VALID,0.855859,
2011-01-22, 02:52:04,VALID,915.655,VALID,0,VALID,95.8416,VALID,0,VALID,19.1778,VALID,123,VALID,0.969531,
2011-01-22, 02:53:04,VALID,915.663,VALID,0,VALID,95.8492,VALID,0,VALID,19.1973,VALID,123,VALID,0.555078,
2011-01-22, 02:54:04,VALID,915.646,VALID,0,VALID,95.8492,VALID,0,VALID,19.1763,VALID,158,VALID,0.820703,
2011-01-22, 02:55:04,VALID,915.654,VALID,0,VALID,95.8187,VALID,0,VALID,19.1763,VALID,155,VALID,0.853906,
2011-01-22, 02:56:04,VALID,915.654,VALID,0,VALID,95.834,VALID,0,VALID,19.1763,VALID,140,VALID,0.276172,
2011-01-22, 02:57:04,VALID,915.658,VALID,0,VALID,95.8035,VALID,0,VALID,19.1973,VALID,143,VALID,1.08438,
2011-01-22, 02:58:04,VALID,915.658,VALID,0,VALID,95.7958,VALID,0,VALID,19.1763,VALID,140,VALID,0.913672,
2011-01-22, 02:59:04,VALID,915.633,VALID,0,VALID,95.773,VALID,0,VALID,19.1958,VALID,132,VALID,0.986328,
2011-01-22, 03:00:04,VALID,915.661,VALID,0,VALID,95.7501,VALID,0,VALID,19.1958,VALID,148,VALID,0.414063,
2011-01-22, 03:01:04,VALID,915.67,VALID,0,VALID,95.7577,VALID,0,VALID,19.2153,VALID,148,VALID,0.670313,
2011-01-22, 03:02:04,VALID,915.645,VALID,0,VALID,95.7044,VALID,0,VALID,19.2153,VALID,148,VALID,0.848828,
2011-01-22, 03:03:04,VALID,915.674,VALID,0,VALID,95.7349,VALID,0,VALID,19.2363,VALID,148,VALID,0.575781,
2011-01-22, 03:04:04,VALID,915.658,VALID,0,VALID,95.712,VALID,0,VALID,19.2153,VALID,148,VALID,0.340625,
2011-01-22, 03:05:04,VALID,915.652,VALID,0,VALID,95.6739,VALID,0,VALID,19.1958,VALID,148,VALID,0.330078,
2011-01-22, 03:06:04,VALID,915.617,VALID,0,VALID,95.6586,VALID,0,VALID,19.2168,VALID,149,VALID,0.527734,
2011-01-22, 03:07:04,VALID,915.631,VALID,0,VALID,95.6586,VALID,0,VALID,19.2168,VALID,149,VALID,0.295312,
2011-01-22, 03:08:04,VALID,915.592,VALID,0,VALID,95.6281,VALID,0,VALID,19.2153,VALID,149,VALID,0.596484,
2011-01-22, 03:09:04,VALID,915.602,VALID,0,VALID,95.529,VALID,0,VALID,19.2153,VALID,149,VALID,0.482422,
2011-01-22, 03:10:04,VALID,915.622,VALID,0,VALID,95.4299,VALID,0,VALID,19.2348,VALID,182,VALID,0.534375,
2011-01-22, 03:11:04,VALID,915.608,VALID,0,VALID,95.3994,VALID,0,VALID,19.2543,VALID,182,VALID,0.287109,
2011-01-22, 03:12:04,VALID,915.577,VALID,0,VALID,95.3461,VALID,0,VALID,19.2334,VALID,182,VALID,0.476953,
2011-01-22, 03:13:04,VALID,915.578,VALID,0,VALID,95.3461,VALID,0,VALID,19.2543,VALID,182,VALID,0.453516,
2011-01-22, 03:14:04,VALID,915.592,VALID,0,VALID,95.3918,VALID,0,VALID,19.2558,VALID,182,VALID,0.549609,
2011-01-22, 03:15:04,VALID,915.58,VALID,0,VALID,95.4147,VALID,0,VALID,19.2139,VALID,182,VALID,0.551172,
2011-01-22, 03:16:04,VALID,915.595,VALID,0,VALID,95.4604,VALID,0,VALID,19.2348,VALID,182,VALID,0.301172,
2011-01-22, 03:17:04,VALID,915.585,VALID,0,VALID,95.4757,VALID,0,VALID,19.2139,VALID,174,VALID,0.612109,
2011-01-22, 03:18:04,VALID,915.588,VALID,0,VALID,95.5062,VALID,0,VALID,19.2348,VALID,174,VALID,0.651953,
2011-01-22, 03:19:04,VALID,915.618,VALID,0,VALID,95.4909,VALID,0,VALID,19.1958,VALID,174,VALID,1.12812,
2011-01-22, 03:20:04,VALID,915.621,VALID,0,VALID,95.5595,VALID,0,VALID,19.2168,VALID,174,VALID,0.448828,
2011-01-22, 03:21:04,VALID,915.601,VALID,0,VALID,95.5367,VALID,0,VALID,19.1763,VALID,173,VALID,0.617188,
2011-01-22, 03:22:04,VALID,915.582,VALID,0,VALID,95.5671,VALID,0,VALID,19.1554,VALID,173,VALID,0.770703,
2011-01-22, 03:23:04,VALID,915.564,VALID,0,VALID,95.5595,VALID,0,VALID,19.1763,VALID,173,VALID,0.214062,
2011-01-22, 03:24:04,VALID,915.545,VALID,0,VALID,95.6205,VALID,0,VALID,19.1778,VALID,173,VALID,0.172656,
2011-01-22, 03:25:04,VALID,915.567,VALID,0,VALID,95.6281,VALID,0,VALID,19.1973,VALID,173,VALID,0.625391,
2011-01-22, 03:26:04,VALID,915.547,VALID,0,VALID,95.651,VALID,0,VALID,19.1778,VALID,172,VALID,0.191406,
2011-01-22, 03:27:04,VALID,915.541,VALID,0,VALID,95.6586,VALID,0,VALID,19.1373,VALID,172,VALID,0.143359,
2011-01-22, 03:28:04,VALID,915.516,VALID,0,VALID,95.6967,VALID,0,VALID,19.1373,VALID,172,VALID,0.301953,
2011-01-22, 03:29:04,VALID,915.485,VALID,0,VALID,95.7196,VALID,0,VALID,19.1373,VALID,172,VALID,0.578516,
2011-01-22, 03:30:04,VALID,915.515,VALID,0,VALID,95.7196,VALID,0,VALID,19.1178,VALID,172,VALID,0.335938,
2011-01-22, 03:31:04,VALID,915.513,VALID,0,VALID,95.7349,VALID,0,VALID,19.0983,VALID,172,VALID,0.485547,
2011-01-22, 03:32:04,VALID,915.491,VALID,0,VALID,95.7654,VALID,0,VALID,19.1388,VALID,172,VALID,0.413281,
2011-01-22, 03:33:04,VALID,915.474,VALID,0,VALID,95.773,VALID,0,VALID,19.0983,VALID,172,VALID,0.0847656,
2011-01-22, 03:34:04,VALID,915.508,VALID,0,VALID,95.8111,VALID,0,VALID,19.0774,VALID,172,VALID,0,
2011-01-22, 03:35:04,VALID,915.48,VALID,0,VALID,95.8416,VALID,0,VALID,19.0774,VALID,172,VALID,0,
2011-01-22, 03:36:04,VALID,915.487,VALID,0,VALID,95.8645,VALID,0,VALID,19.0579,VALID,172,VALID,0,
2011-01-22, 03:37:04,VALID,915.474,VALID,0,VALID,95.9026,VALID,0,VALID,19.0593,VALID,172,VALID,0.241406,
2011-01-22, 03:38:04,VALID,915.497,VALID,0,VALID,95.9331,VALID,0,VALID,19.0788,VALID,172,VALID,0,
2011-01-22, 03:39:04,VALID,915.444,VALID,0,VALID,95.9483,VALID,0,VALID,19.0579,VALID,172,VALID,0,
2011-01-22, 03:40:04,VALID,915.49,VALID,0,VALID,95.9864,VALID,0,VALID,19.0803,VALID,172,VALID,0,
2011-01-22, 03:41:04,VALID,915.486,VALID,0,VALID,96.0093,VALID,0,VALID,19.0593,VALID,172,VALID,0.00820312,
2011-01-22, 03:42:04,VALID,915.479,VALID,0,VALID,96.0474,VALID,0,VALID,19.0593,VALID,172,VALID,0.351953,
2011-01-22, 03:43:04,VALID,915.477,VALID,0,VALID,96.0017,VALID,0,VALID,19.0788,VALID,172,VALID,0.386328,
2011-01-22, 03:44:04,VALID,915.496,VALID,0,VALID,95.9788,VALID,0,VALID,19.0788,VALID,172,VALID,0.414453,